Cheraw, SC

2:32 PM EDT on March 23, 2017 (GMT -0400)
Cheraw

Weather History for KCQW - December, 2013

Change the Weather History Date:

Saturday, December 14, 2013

  Actual Average (KFLO) Record (KFLO)
Temperature  
Mean Temperature 44 °F -  
Max Temperature 53 °F 59 °F 80 °F (1956)
Min Temperature 35 °F 37 °F 15 °F (1960)
Degree Days  
Heating Degree Days 21    
Moisture  
Dew Point 43 °F    
Average Humidity 91    
Maximum Humidity 100    
Minimum Humidity 61    
Precipitation  
Precipitation 0.68 in - - ()
Sea Level Pressure  
Sea Level Pressure 30.03 in    
Wind  
Wind Speed - (North)    
Max Wind Speed -    
Max Gust Speed -    
Visibility 8 miles    
Events Rain , Thunderstorm    
Averages and records for this station are not official NWS values.
T = Trace of Precipitation, MM = Missing Value Source: NWS Daily Summary

Daily Weather History Graph

Daily Weather History Graph

Search for Another Location

Airport or City:

Trip Planner

Search our weather history database for the weather conditions in past years. The results will help you decide how hot, cold, wet, or windy it might be!

Date:

Astronomy

Dec. 14, 2013 Rise Set
Actual Time 7:19 AM EST 5:10 PM EST
Civil Twilight 6:51 AM EST 5:38 PM EST
Nautical Twilight 6:19 AM EST 6:09 PM EST
Astronomical Twilight 5:48 AM EST 6:40 PM EST
Moon 3:27 PM EST (12/14) 4:42 AM EST (12/14)
Length of Visible Light 10h 46m
Length of Day
9h 50m
Waxing Gibbous, 93% of the Moon is Illuminated
Dec 14
Waxing Gibbous
Dec 17
Full
Dec 25
Last Quarter
Jan 1
New
Jan 7
First Quarter

Hourly Weather History & Observations

Time (EST) Temp. Dew Point Humidity Pressure Visibility Wind Dir Wind Speed Gust Speed Precip Events Conditions
12:15 AM 35.6 °F 33.8 °F 93% 30.29 in 10.0 mi North - - N/A   Clear
12:35 AM 37.4 °F 35.6 °F 93% 30.28 in 10.0 mi North - - N/A   Clear
12:55 AM 37.4 °F 33.8 °F 87% 30.28 in 10.0 mi North - - N/A   Clear
1:15 AM 37.4 °F 32.0 °F 81% 30.27 in 10.0 mi North - - N/A   Clear
1:35 AM 37.4 °F 32.0 °F 81% 30.26 in 10.0 mi North - - N/A   Clear
1:55 AM 37.4 °F 33.8 °F 87% 30.25 in 10.0 mi North - - N/A   Partly Cloudy
2:15 AM 37.4 °F 35.6 °F 93% 30.26 in 10.0 mi North - - N/A   Partly Cloudy
2:35 AM 37.4 °F 35.6 °F 93% 30.26 in 10.0 mi North - - N/A   Mostly Cloudy
2:55 AM 39.2 °F 35.6 °F 87% 30.25 in 10.0 mi North - - N/A   Partly Cloudy
3:15 AM 39.2 °F 33.8 °F 81% 30.25 in 10.0 mi North - - N/A   Mostly Cloudy
3:35 AM 39.2 °F 35.6 °F 87% 30.25 in 10.0 mi North - - N/A   Mostly Cloudy
3:55 AM 39.2 °F 33.8 °F 81% 30.26 in 10.0 mi North - - N/A   Scattered Clouds
4:15 AM 41.0 °F 35.6 °F 81% 30.25 in 10.0 mi North - - N/A   Mostly Cloudy
4:35 AM 39.2 °F 35.6 °F 87% 30.24 in 10.0 mi North - - N/A   Mostly Cloudy
4:55 AM 39.2 °F 35.6 °F 87% 30.23 in 10.0 mi North - - N/A   Mostly Cloudy
5:15 AM 39.2 °F 35.6 °F 87% 30.21 in 10.0 mi North - - N/A   Mostly Cloudy
5:35 AM 39.2 °F 35.6 °F 87% 30.21 in 10.0 mi North - - N/A   Scattered Clouds
5:55 AM 39.2 °F 35.6 °F 87% 30.21 in 10.0 mi North - - N/A   Mostly Cloudy
6:15 AM 39.2 °F 35.6 °F 87% 30.20 in 10.0 mi North - - N/A   Mostly Cloudy
6:35 AM 39.2 °F 33.8 °F 81% 30.21 in 10.0 mi North - - N/A   Mostly Cloudy
6:55 AM 39.2 °F 35.6 °F 87% 30.21 in 10.0 mi North - - N/A   Mostly Cloudy
7:15 AM 41.0 °F 35.6 °F 81% 30.21 in 10.0 mi North - - N/A   Mostly Cloudy
7:35 AM 41.0 °F 33.8 °F 76% 30.22 in 10.0 mi North - - N/A   Mostly Cloudy
7:55 AM 41.0 °F 33.8 °F 76% 30.20 in 10.0 mi North - - N/A   Mostly Cloudy
8:15 AM 42.8 °F 33.8 °F 70% 30.21 in 10.0 mi North - - N/A   Mostly Cloudy
8:35 AM 44.6 °F 32.0 °F 61% 30.19 in 10.0 mi North - - N/A   Mostly Cloudy
8:55 AM 42.8 °F 37.4 °F 81% 30.19 in 2.0 mi North - - 0.01 in Rain Light Rain
9:15 AM 41.0 °F 39.2 °F 93% 30.18 in 10.0 mi North - - N/A   Scattered Clouds
9:35 AM 44.6 °F 39.2 °F 81% 30.17 in 10.0 mi North - - N/A   Partly Cloudy
9:55 AM 46.4 °F 39.2 °F 76% 30.16 in 10.0 mi North - - N/A   Clear
10:15 AM 48.2 °F 41.0 °F 76% 30.15 in 10.0 mi North - - 0.01 in   Scattered Clouds
10:35 AM 48.2 °F 41.0 °F 76% 30.15 in 10.0 mi North - - 0.01 in   Overcast
10:55 AM 48.2 °F 44.6 °F 87% 30.13 in 10.0 mi North - - 0.01 in   Mostly Cloudy
11:15 AM 48.2 °F 44.6 °F 87% 30.10 in 10.0 mi North - - N/A   Mostly Cloudy
11:35 AM 50.0 °F 46.4 °F 87% 30.07 in 10.0 mi North - - N/A   Scattered Clouds
11:55 AM 50.0 °F 46.4 °F 87% 30.04 in 10.0 mi North - - N/A   Partly Cloudy
12:15 PM 50.0 °F 48.2 °F 94% 30.00 in 10.0 mi North - - N/A   Mostly Cloudy
12:35 PM 50.0 °F 48.2 °F 94% 29.98 in 10.0 mi North - - N/A   Mostly Cloudy
12:55 PM 51.8 °F 48.2 °F 88% 29.95 in 10.0 mi North - - N/A   Mostly Cloudy
1:15 PM 50.0 °F 48.2 °F 94% 29.94 in 9.0 mi North - - N/A Rain Light Rain
1:35 PM 50.0 °F 50.0 °F 100% 29.91 in 5.0 mi North - - 0.01 in Rain Light Rain
1:55 PM 50.0 °F 50.0 °F 100% 29.89 in 10.0 mi North - - 0.01 in   Overcast
2:15 PM 50.0 °F 50.0 °F 100% 29.86 in 5.0 mi North - - N/A Rain Light Rain
2:35 PM 50.0 °F 50.0 °F 100% 29.86 in 5.0 mi North - - 0.01 in Rain Light Rain
2:55 PM 50.0 °F 50.0 °F 100% 29.84 in 5.0 mi North - - 0.02 in Rain Light Rain
3:15 PM 50.0 °F 50.0 °F 100% 29.82 in 1.8 mi North - - 0.04 in Rain Light Rain
3:35 PM 51.8 °F 51.8 °F 100% 29.82 in 2.5 mi North - - 0.06 in Rain Light Rain
3:55 PM 53.6 °F 53.6 °F 100% 29.82 in 3.0 mi North - - 0.10 in Rain Light Rain
4:15 PM 53.6 °F 53.6 °F 100% 29.86 in 3.0 mi North - - 0.02 in Rain Light Rain
4:35 PM 53.6 °F 53.6 °F 100% 29.86 in 2.5 mi North - - 0.09 in Rain , Thunderstorm Heavy Rain
4:55 PM 53.6 °F 53.6 °F 100% 29.86 in 1.8 mi North - - 0.22 in Rain Rain
5:15 PM 51.8 °F 51.8 °F 100% 29.87 in 3.0 mi North - - 0.05 in Rain Heavy Rain
5:35 PM 51.8 °F 51.8 °F 100% 29.86 in 2.5 mi North - - 0.19 in Rain Heavy Rain
5:55 PM 50.0 °F 50.0 °F 100% 29.86 in 5.0 mi North - - 0.23 in Rain Light Rain
6:15 PM 50.0 °F 50.0 °F 100% 29.86 in 7.0 mi North - - 0.02 in Rain Light Rain
6:35 PM 50.0 °F 50.0 °F 100% 29.85 in 4.0 mi North - - 0.04 in Rain Rain
6:55 PM 50.0 °F 50.0 °F 100% 29.86 in 7.0 mi North - - 0.07 in Rain Light Rain
7:15 PM 48.2 °F 48.2 °F 100% 29.85 in 8.0 mi North - - 0.01 in Rain Light Rain
7:35 PM 48.2 °F 48.2 °F 100% 29.83 in 10.0 mi North - - 0.01 in   Mostly Cloudy
7:55 PM 48.2 °F 48.2 °F 100% 29.84 in 8.0 mi North - - 0.01 in Rain Light Rain
8:15 PM 48.2 °F 48.2 °F 100% 29.84 in 10.0 mi North - - N/A   Overcast
8:35 PM 48.2 °F 48.2 °F 100% 29.82 in 10.0 mi North - - N/A   Overcast
8:55 PM 48.2 °F 48.2 °F 100% 29.83 in 10.0 mi North - - N/A   Overcast
9:15 PM 48.2 °F 48.2 °F 100% 29.83 in 10.0 mi North - - N/A   Overcast
9:35 PM 48.2 °F 48.2 °F 100% 29.83 in 8.0 mi North - - N/A   Overcast
9:55 PM 48.2 °F 48.2 °F 100% 29.83 in 5.0 mi North - - N/A   Overcast
10:15 PM 46.4 °F 46.4 °F 100% 29.83 in 5.0 mi North - - N/A   Overcast
10:35 PM 46.4 °F 46.4 °F 100% 29.82 in 10.0 mi North - - N/A   Overcast
10:55 PM 46.4 °F 46.4 °F 100% 29.82 in 3.0 mi North - - N/A   Overcast
11:15 PM 46.4 °F 46.4 °F 100% 29.82 in 2.5 mi North - - N/A   Overcast
11:35 PM 46.4 °F 46.4 °F 100% 29.81 in 6.0 mi North - - N/A   Overcast
11:55 PM 46.4 °F 46.4 °F 100% 29.80 in 7.0 mi North - - N/A   Mostly Cloudy